When you browse on this site, cookies collect data to enhance your experience and personalize the content and advertising you see.
Visit our Privacy Policy to learn more. By continuing to use the site, you agree to this use of cookies and data.
  • In Czech Republic
  • List of Countries
  • For 7 days
  • Water Temperature
  • Weather Map
  • Weather Widgets
  • user-avatar
    Login

    Hourly Weather Biskira

    Today, 14 December, Saturday

    Time Temperature Precipitation Wind Pressure Humidity
    00:00 +15°C° 0 mm 8 mps 751 mmHg 66%
    01:00 +14°C° 0 mm 7 mps 751 mmHg 67%
    02:00 +14°C° 0 mm 7 mps 751 mmHg 68%
    03:00 +14°C° 0 mm 6 mps 751 mmHg 70%
    04:00 +14°C° 0 mm 6 mps 751 mmHg 69%
    05:00 +14°C° 0 mm 7 mps 752 mmHg 69%
    06:00 +14°C° 0 mm 7 mps 752 mmHg 68%
    07:00 +15°C° 0 mm 6 mps 753 mmHg 64%
    08:00 +16°C° 0 mm 6 mps 753 mmHg 60%
    09:00 +17°C° 0 mm 6 mps 754 mmHg 57%
    10:00 +17°C° 0 mm 5 mps 754 mmHg 54%
    11:00 +19°C° 0 mm 5 mps 753 mmHg 51%
    12:00 +20°C° 0 mm 5 mps 753 mmHg 48%
    13:00 +21°C° 0 mm 4 mps 753 mmHg 47%
    14:00 +21°C° 0 mm 3 mps 753 mmHg 46%
    15:00 +21°C° 0 mm 3 mps 753 mmHg 45%
    16:00 +20°C° 0 mm 2 mps 753 mmHg 50%
    17:00 +19°C° 0 mm 2 mps 754 mmHg 54%
    18:00 +17°C° 0 mm 2 mps 754 mmHg 59%
    19:00 +18°C° 0 mm 1 mps 755 mmHg 60%
    20:00 +18°C° 0 mm 1 mps 755 mmHg 61%
    21:00 +16°C° 0 mm 1 mps 755 mmHg 61%
    22:00 +16°C° 0 mm 1 mps 755 mmHg 63%
    23:00 +15°C° 0 mm 1 mps 755 mmHg 65%

    Tomorrow, 15 December, Sunday

    Time Temperature Precipitation Wind Pressure Humidity
    00:00 +15°C° 0 mm 1 mps 755 mmHg 67%
    01:00 +13°C° 0 mm 0 mps 755 mmHg 69%
    02:00 +13°C° 0 mm 0 mps 754 mmHg 70%
    03:00 +12°C° 0 mm 0 mps 754 mmHg 72%
    04:00 +12°C° 0 mm 0 mps 754 mmHg 74%
    05:00 +12°C° 0 mm 0 mps 754 mmHg 75%
    06:00 +11°C° 0 mm 0 mps 754 mmHg 76%
    07:00 +13°C° 0 mm 0 mps 755 mmHg 70%
    08:00 +15°C° 0 mm 1 mps 755 mmHg 65%
    09:00 +18°C° 0 mm 1 mps 756 mmHg 59%
    10:00 +18°C° 0 mm 1 mps 755 mmHg 56%
    11:00 +19°C° 0 mm 1 mps 755 mmHg 53%
    12:00 +19°C° 0 mm 2 mps 754 mmHg 50%
    13:00 +19°C° 0 mm 2 mps 754 mmHg 49%
    14:00 +20°C° 0 mm 2 mps 754 mmHg 49%
    15:00 +20°C° 0 mm 2 mps 754 mmHg 48%
    16:00 +19°C° 0 mm 2 mps 754 mmHg 52%
    17:00 +18°C° 0 mm 2 mps 754 mmHg 56%
    18:00 +17°C° 0 mm 2 mps 754 mmHg 60%
    19:00 +17°C° 0 mm 2 mps 754 mmHg 60%
    20:00 +16°C° 0 mm 3 mps 755 mmHg 60%
    21:00 +16°C° 0 mm 3 mps 755 mmHg 60%
    22:00 +16°C° 0 mm 3 mps 755 mmHg 61%
    23:00 +14°C° 0 mm 3 mps 755 mmHg 62%

    Day after tomorrow, 16 December, Monday

    Time Temperature Precipitation Wind Pressure Humidity
    00:00 +14°C° 0 mm 3 mps 755 mmHg 63%
    01:00 +14°C° 0 mm 3 mps 754 mmHg 65%
    02:00 +13°C° 0 mm 3 mps 754 mmHg 66%
    03:00 +13°C° 0 mm 3 mps 754 mmHg 68%
    04:00 +13°C° 0 mm 3 mps 754 mmHg 68%
    05:00 +13°C° 0 mm 3 mps 754 mmHg 68%
    06:00 +13°C° 0 mm 3 mps 754 mmHg 69%
    07:00 +13°C° 0 mm 4 mps 754 mmHg 65%
    08:00 +14°C° 0 mm 4 mps 754 mmHg 62%
    09:00 +15°C° 0 mm 4 mps 754 mmHg 59%
    10:00 +16°C° 0 mm 5 mps 753 mmHg 55%
    11:00 +17°C° 0 mm 6 mps 753 mmHg 51%
    12:00 +19°C° 0 mm 6 mps 752 mmHg 48%
    13:00 +19°C° 0 mm 6 mps 752 mmHg 47%
    14:00 +19°C° 0 mm 6 mps 751 mmHg 47%
    15:00 +19°C° 0 mm 6 mps 750 mmHg 46%
    16:00 +17°C° 0 mm 6 mps 751 mmHg 49%
    17:00 +17°C° 0 mm 5 mps 751 mmHg 52%
    18:00 +16°C° 0 mm 5 mps 751 mmHg 55%
    19:00 +16°C° 0 mm 5 mps 751 mmHg 55%
    20:00 +15°C° 0 mm 5 mps 751 mmHg 55%
    21:00 +15°C° 0 mm 5 mps 751 mmHg 56%
    22:00 +15°C° 0 mm 5 mps 750 mmHg 55%
    23:00 +15°C° 0 mm 5 mps 750 mmHg 54%

    17 December, Tuesday

    Time Temperature Precipitation Wind Pressure Humidity
    00:00 +15°C° 0 mm 5 mps 750 mmHg 53%
    01:00 +15°C° 0 mm 5 mps 749 mmHg 53%
    02:00 +15°C° 0 mm 5 mps 749 mmHg 53%
    03:00 +15°C° 0 mm 4 mps 748 mmHg 53%
    04:00 +14°C° 0 mm 4 mps 748 mmHg 54%
    05:00 +14°C° 0 mm 5 mps 748 mmHg 54%
    06:00 +14°C° 0 mm 5 mps 747 mmHg 55%
    07:00 +15°C° 0 mm 6 mps 747 mmHg 52%
    08:00 +16°C° 0 mm 7 mps 747 mmHg 49%
    09:00 +17°C° 0 mm 8 mps 747 mmHg 46%
    10:00 +17°C° 0 mm 9 mps 746 mmHg 44%
    11:00 +18°C° 0 mm 10 mps 745 mmHg 42%
    12:00 +19°C° 0 mm 11 mps 745 mmHg 40%
    13:00 +19°C° 0 mm 11 mps 744 mmHg 40%
    14:00 +19°C° 0 mm 11 mps 743 mmHg 40%
    15:00 +19°C° 0 mm 12 mps 742 mmHg 40%
    16:00 +18°C° 0 mm 11 mps 742 mmHg 41%
    17:00 +18°C° 0 mm 11 mps 742 mmHg 42%
    18:00 +18°C° 0 mm 11 mps 741 mmHg 42%
    19:00 +18°C° 0 mm 10 mps 741 mmHg 43%
    20:00 +18°C° 0 mm 8 mps 741 mmHg 43%
    21:00 +18°C° 0 mm 7 mps 740 mmHg 44%
    22:00 +17°C° 0 mm 6 mps 740 mmHg 44%
    23:00 +16°C° 0 mm 5 mps 740 mmHg 44%

    18 December, Wednesday

    Time Temperature Precipitation Wind Pressure Humidity
    00:00 +15°C° 0 mm 4 mps 740 mmHg 44%
    01:00 +14°C° 0 mm 4 mps 740 mmHg 47%
    02:00 +13°C° 0 mm 4 mps 741 mmHg 51%
    03:00 +13°C° 0 mm 3 mps 741 mmHg 55%
    04:00 +11°C° 0.1 mm 6 mps 742 mmHg 60%
    05:00 +11°C° 0.1 mm 8 mps 743 mmHg 65%
    06:00 +11°C° 0.1 mm 11 mps 744 mmHg 70%
    07:00 +12°C° 0.1 mm 12 mps 745 mmHg 65%
    08:00 +12°C° 0.1 mm 13 mps 745 mmHg 60%
    09:00 +13°C° 0.1 mm 14 mps 746 mmHg 55%
    10:00 +13°C° 0 mm 14 mps 747 mmHg 51%
    11:00 +14°C° 0 mm 14 mps 748 mmHg 46%
    12:00 +14°C° 0 mm 14 mps 748 mmHg 42%
    13:00 +14°C° 0 mm 13 mps 749 mmHg 41%
    14:00 +14°C° 0 mm 12 mps 749 mmHg 40%
    15:00 +14°C° 0 mm 11 mps 750 mmHg 39%
    16:00 +14°C° 0 mm 10 mps 751 mmHg 43%
    17:00 +13°C° 0 mm 8 mps 751 mmHg 47%
    18:00 +12°C° 0 mm 7 mps 752 mmHg 51%
    19:00 +11°C° 0 mm 7 mps 752 mmHg 52%
    20:00 +11°C° 0 mm 6 mps 753 mmHg 54%
    21:00 +10°C° 0 mm 6 mps 753 mmHg 56%
    22:00 +10°C° 0 mm 6 mps 754 mmHg 57%
    23:00 +10°C° 0 mm 6 mps 754 mmHg 58%

    19 December, Thursday

    Time Temperature Precipitation Wind Pressure Humidity
    00:00 +9°C° 0 mm 6 mps 754 mmHg 59%
    01:00 +9°C° 0 mm 5 mps 754 mmHg 60%
    02:00 +9°C° 0 mm 5 mps 754 mmHg 61%
    03:00 +9°C° 0 mm 5 mps 754 mmHg 62%
    04:00 +8°C° 0 mm 4 mps 754 mmHg 63%
    05:00 +8°C° 0 mm 4 mps 754 mmHg 63%
    06:00 +9°C° 0 mm 3 mps 754 mmHg 64%
    07:00 +10°C° 0 mm 3 mps 755 mmHg 59%
    08:00 +12°C° 0 mm 2 mps 755 mmHg 55%
    09:00 +13°C° 0 mm 2 mps 755 mmHg 50%
    10:00 +14°C° 0 mm 2 mps 755 mmHg 48%
    11:00 +15°C° 0 mm 1 mps 754 mmHg 45%
    12:00 +15°C° 0 mm 1 mps 754 mmHg 42%
    13:00 +16°C° 0 mm 1 mps 754 mmHg 42%
    14:00 +16°C° 0 mm 1 mps 754 mmHg 42%
    15:00 +16°C° 0 mm 1 mps 754 mmHg 42%
    16:00 +15°C° 0 mm 1 mps 754 mmHg 46%
    17:00 +14°C° 0 mm 1 mps 754 mmHg 50%
    18:00 +13°C° 0 mm 1 mps 754 mmHg 54%
    19:00 +13°C° 0 mm 1 mps 754 mmHg 55%
    20:00 +13°C° 0 mm 1 mps 755 mmHg 56%
    21:00 +12°C° 0 mm 1 mps 755 mmHg 57%
    22:00 +12°C° 0 mm 1 mps 755 mmHg 57%
    23:00 +12°C° 0 mm 1 mps 755 mmHg 58%
    Show more